Tracking 19846 objects as of 19-Sep-2019
HD Live streaming from Space Station
objects crossing your sky now

FENGYUN 1C DEB

Track FENGYUN 1C DEB now!
10-day predictions


NORAD ID: 33684
Int'l Code: 1999-025DFV
Perigee: 478.7 km
Apogee: 1,092.4 km
Inclination: 99.1 °
Period: 100.4 minutes
Semi major axis: 7156 km
RCS: 0.0093 m2 (small)
Launch date: May 10, 1999
Source: People's Republic of China (PRC)
Launch site: Taiyaun Space Center, China (TSC)

Note: This is SATELLITE DEBRIS
aabbcc
Your satellite tracking list
Your tracking list is empty




NASA's NSSDC Master Catalog

Two Line Element Set (TLE):
1 33684U 99025DFV 19259.82404874 +.00000235 +00000-0 +40336-4 0  9992
2 33684 099.0983 123.1426 0428743 288.3205 067.1797 14.34000217600756
Source of the keplerian elements: AFSPC